Howell, MI

1:38 AM EST on February 23, 2017 (GMT -0500)
Livingston County

Weather History for KOZW - January, 2011

Change the Weather History Date:

Wednesday, January 26, 2011

  Actual Average Record
Temperature  
Mean Temperature 29 °F -  
Max Temperature 30 °F 30 °F 55 °F (2002)
Min Temperature 28 °F 16 °F 0 °F (2009)
Degree Days  
Heating Degree Days 36    
Moisture  
Dew Point 25 °F    
Average Humidity 84    
Maximum Humidity 93    
Minimum Humidity 75    
Precipitation  
Precipitation 0.00 in - - ()
Sea Level Pressure  
Sea Level Pressure 29.93 in    
Wind  
Wind Speed 4 mph (West)    
Max Wind Speed 10 mph    
Max Gust Speed 16 mph    
Visibility 6 miles    
Events      
Averages and records for this station are not official NWS values.
T = Trace of Precipitation, MM = Missing Value Source: NWS Daily Summary

Daily Weather History Graph

Daily Weather History Graph

Search for Another Location

Airport or City:

Trip Planner

Search our weather history database for the weather conditions in past years. The results will help you decide how hot, cold, wet, or windy it might be!

Date:

Astronomy

Jan. 26, 2011 Rise Set
Actual Time 7:56 AM EST 5:41 PM EST
Civil Twilight 7:25 AM EST 6:11 PM EST
Nautical Twilight 6:51 AM EST 6:45 PM EST
Astronomical Twilight 6:18 AM EST 7:19 PM EST
Moon 1:13 AM EST (1/26) 11:19 AM EST (1/26)
Length of Visible Light 10h 45m
Length of Day
9h 45m
Waning Gibbous, 48% of the Moon is Illuminated
Jan 26
Waning Gibbous
Feb 2
New
Feb 11
First Quarter
Feb 18
Full
Feb 24
Last Quarter

Hourly Weather History & Observations

Time (EST) Temp. Windchill Dew Point Humidity Pressure Visibility Wind Dir Wind Speed Gust Speed Precip Events Conditions
12:15 AM 28.4 °F 22.2 °F 23.0 °F 80% 30.00 in 7.0 mi WSW 5.8 mph - N/A   Overcast
12:35 AM 28.4 °F 24.6 °F 23.0 °F 80% 29.99 in 10.0 mi WSW 3.5 mph - N/A   Overcast
12:55 AM 28.4 °F 24.6 °F 23.0 °F 80% 29.99 in 7.0 mi WSW 3.5 mph - N/A   Overcast
1:15 AM 28.4 °F 24.6 °F 23.0 °F 80% 29.99 in 10.0 mi WSW 3.5 mph - N/A   Overcast
1:35 AM 28.4 °F 23.3 °F 23.0 °F 80% 29.98 in 7.0 mi West 4.6 mph - N/A   Overcast
1:55 AM 28.4 °F 24.6 °F 23.0 °F 80% 29.98 in 7.0 mi West 3.5 mph - N/A   Overcast
2:14 AM 28.4 °F 23.3 °F 23.0 °F 80% 29.98 in 10.0 mi WNW 4.6 mph - N/A   Overcast
2:35 AM 28.4 °F - 23.0 °F 80% 29.98 in 7.0 mi Calm Calm - N/A   Overcast
2:55 AM 28.4 °F - 23.0 °F 80% 29.98 in 7.0 mi Calm Calm - N/A   Overcast
3:14 AM 28.4 °F - 24.8 °F 86% 29.98 in 7.0 mi Calm Calm - N/A   Overcast
3:35 AM 28.4 °F - 24.8 °F 86% 29.97 in 7.0 mi Calm Calm - N/A   Overcast
3:55 AM 28.4 °F - 24.8 °F 86% 29.96 in 7.0 mi Calm Calm - N/A   Overcast
4:14 AM 28.4 °F - 23.0 °F 80% 29.96 in 7.0 mi Calm Calm - N/A   Overcast
4:35 AM 28.4 °F - 24.8 °F 86% 29.95 in 7.0 mi Calm Calm - N/A   Overcast
4:55 AM 28.4 °F - 24.8 °F 86% 29.95 in 7.0 mi Calm Calm - N/A   Overcast
5:15 AM 28.4 °F - 24.8 °F 86% 29.95 in 7.0 mi Calm Calm - N/A   Overcast
5:35 AM 28.4 °F - 24.8 °F 86% 29.95 in 7.0 mi Calm Calm - N/A   Overcast
5:54 AM 28.4 °F - 23.0 °F 80% 29.93 in 7.0 mi Calm Calm - N/A   Overcast
6:15 AM 28.4 °F - 24.8 °F 86% 29.93 in 7.0 mi Calm Calm - N/A   Overcast
6:35 AM 28.4 °F 24.6 °F 23.0 °F 80% 29.93 in 7.0 mi South 3.5 mph - N/A   Overcast
6:54 AM 28.4 °F - 23.0 °F 80% 29.93 in 7.0 mi Calm Calm - N/A   Overcast
7:15 AM 28.4 °F - 24.8 °F 86% 29.93 in 7.0 mi Calm Calm - N/A   Overcast
7:35 AM 28.4 °F 24.6 °F 24.8 °F 86% 29.93 in 7.0 mi WSW 3.5 mph - N/A   Overcast
7:54 AM 28.4 °F - 24.8 °F 86% 29.93 in 7.0 mi Calm Calm - N/A   Overcast
8:15 AM 28.4 °F 24.6 °F 24.8 °F 86% 29.93 in 5.0 mi WSW 3.5 mph - N/A   Overcast
8:35 AM 28.4 °F 24.6 °F 24.8 °F 86% 29.93 in 4.0 mi West 3.5 mph - N/A   Overcast
8:54 AM 28.4 °F 22.2 °F 24.8 °F 86% 29.93 in 5.0 mi WSW 5.8 mph - N/A   Overcast
9:15 AM 28.4 °F 23.3 °F 24.8 °F 86% 29.93 in 4.0 mi WSW 4.6 mph - N/A   Overcast
9:35 AM 28.4 °F 24.6 °F 24.8 °F 86% 29.93 in 4.0 mi WSW 3.5 mph - N/A   Overcast
9:54 AM 28.4 °F 23.3 °F 24.8 °F 86% 29.93 in 4.0 mi WSW 4.6 mph - N/A   Overcast
10:15 AM 28.4 °F 22.2 °F 26.6 °F 93% 29.93 in 3.0 mi West 5.8 mph - N/A   Overcast
10:35 AM 28.4 °F 22.2 °F 26.6 °F 93% 29.93 in 3.0 mi West 5.8 mph - N/A   Overcast
10:55 AM 28.4 °F 23.3 °F 26.6 °F 93% 29.93 in 4.0 mi West 4.6 mph - N/A   Overcast
11:15 AM 28.4 °F 24.6 °F 26.6 °F 93% 29.93 in 4.0 mi West 3.5 mph - N/A   Overcast
11:35 AM 28.4 °F 24.6 °F 26.6 °F 93% 29.93 in 3.0 mi West 3.5 mph - N/A   Overcast
11:55 AM 28.4 °F 23.3 °F 26.6 °F 93% 29.93 in 3.0 mi WSW 4.6 mph - N/A   Overcast
12:15 PM 30.2 °F 24.3 °F 26.6 °F 86% 29.92 in 3.0 mi West 5.8 mph - N/A   Overcast
12:34 PM 30.2 °F 26.7 °F 26.6 °F 86% 29.91 in 3.0 mi West 3.5 mph - N/A   Overcast
12:55 PM 30.2 °F 25.4 °F 26.6 °F 86% 29.90 in 4.0 mi WNW 4.6 mph - N/A   Overcast
1:15 PM 30.2 °F 26.7 °F 26.6 °F 86% 29.89 in 4.0 mi WNW 3.5 mph - N/A   Overcast
1:34 PM 30.2 °F 25.4 °F 26.6 °F 86% 29.89 in 4.0 mi WNW 4.6 mph - N/A   Overcast
1:55 PM 30.2 °F 23.4 °F 26.6 °F 86% 29.88 in 5.0 mi NW 6.9 mph - N/A   Overcast
2:14 PM 30.2 °F 23.4 °F 26.6 °F 86% 29.88 in 5.0 mi WNW 6.9 mph - N/A   Overcast
2:34 PM 30.2 °F 23.4 °F 26.6 °F 86% 29.88 in 5.0 mi WNW 6.9 mph - N/A   Overcast
2:55 PM 30.2 °F 22.6 °F 26.6 °F 86% 29.88 in 5.0 mi WNW 8.1 mph - N/A   Haze
3:14 PM 30.2 °F 25.4 °F 26.6 °F 86% 29.88 in 5.0 mi WNW 4.6 mph - N/A   Haze
3:35 PM 30.2 °F 22.6 °F 26.6 °F 86% 29.89 in 5.0 mi NW 8.1 mph - N/A   Haze
3:55 PM 30.2 °F 22.6 °F 26.6 °F 86% 29.89 in 7.0 mi NW 8.1 mph - N/A   Overcast
4:14 PM 30.2 °F 25.4 °F 26.6 °F 86% 29.90 in 5.0 mi NW 4.6 mph - N/A   Haze
4:35 PM 30.2 °F 22.6 °F 24.8 °F 80% 29.90 in 7.0 mi NW 8.1 mph - N/A   Overcast
4:55 PM 30.2 °F 21.3 °F 24.8 °F 80% 29.90 in 7.0 mi NW 10.4 mph 16.1 mph N/A   Overcast
5:15 PM 30.2 °F 23.4 °F 24.8 °F 80% 29.91 in 5.0 mi NNW 6.9 mph - N/A   Haze
5:35 PM 30.2 °F 24.3 °F 24.8 °F 80% 29.91 in 7.0 mi NW 5.8 mph - N/A   Overcast
5:54 PM 30.2 °F 24.3 °F 24.8 °F 80% 29.91 in 7.0 mi WNW 5.8 mph - N/A   Overcast
6:15 PM 30.2 °F 24.3 °F 23.0 °F 75% 29.92 in 7.0 mi West 5.8 mph - N/A   Overcast
6:35 PM 30.2 °F 24.3 °F 23.0 °F 75% 29.92 in 10.0 mi NW 5.8 mph - N/A   Overcast
6:54 PM 30.2 °F 25.4 °F 23.0 °F 75% 29.92 in 10.0 mi NW 4.6 mph - N/A   Overcast
7:15 PM 28.4 °F - 23.0 °F 80% 29.93 in 10.0 mi Calm Calm - N/A   Overcast
7:35 PM 28.4 °F - 23.0 °F 80% 29.93 in 7.0 mi Calm Calm - N/A   Overcast
7:54 PM 28.4 °F - 23.0 °F 80% 29.93 in 7.0 mi Calm Calm - N/A   Overcast
8:15 PM 28.4 °F 23.3 °F 23.0 °F 80% 29.93 in 7.0 mi West 4.6 mph - N/A   Overcast
8:35 PM 28.4 °F 24.6 °F 23.0 °F 80% 29.93 in 7.0 mi West 3.5 mph - N/A   Overcast
8:54 PM 28.4 °F 24.6 °F 23.0 °F 80% 29.93 in 7.0 mi West 3.5 mph - N/A   Overcast
9:15 PM 28.4 °F 23.3 °F 23.0 °F 80% 29.93 in 7.0 mi West 4.6 mph - N/A   Overcast
9:34 PM 28.4 °F 23.3 °F 23.0 °F 80% 29.93 in 7.0 mi West 4.6 mph - N/A   Overcast
9:55 PM 28.4 °F - 23.0 °F 80% 29.92 in 7.0 mi Calm Calm - N/A   Overcast
10:15 PM 28.4 °F 23.3 °F 23.0 °F 80% 29.92 in 5.0 mi West 4.6 mph - N/A   Haze
10:34 PM 28.4 °F 22.2 °F 23.0 °F 80% 29.92 in 5.0 mi West 5.8 mph - N/A   Haze
10:55 PM 28.4 °F 22.2 °F 23.0 °F 80% 29.92 in 7.0 mi West 5.8 mph - N/A   Overcast
11:14 PM 28.4 °F 21.2 °F 23.0 °F 80% 29.91 in 5.0 mi West 6.9 mph - N/A   Overcast
11:35 PM 28.4 °F 21.2 °F 23.0 °F 80% 29.91 in 7.0 mi West 6.9 mph - N/A   Overcast
11:55 PM 28.4 °F - 23.0 °F 80% 29.91 in 7.0 mi Calm Calm - N/A   Overcast